Hourly Data Report for September 18, 2017

All times are specified in Local Standard Time (LST). Add 1 hour to adjust for Daylight Saving Time where and when it is observed.

GJOA HAVEN A
NUNAVUT

68°38'08.000" N
95°51'01.000" W
46.90 m
2302337
71597
YHK

Download Data

Hourly Data (September 2017)
Hourly Data Report for September 18, 2017
Temp Definition
°C
Dew Point Temp Definition
°C
Rel Hum Definition
%
Wind Dir Definition
10's deg

Wind Spd Definition
km/h
Visibility Definition
km
Stn Press Definition
kPa
Hmdx Definition


Wind Chill Definition


Weather Definition


TIME
00:00 Legend Double Dagger 4.2 3.9 98 26 15 16.1 100.17     LegendNANA
01:00 Legend Double Dagger 3.9 3.8 99 27 13 0.8 100.20     Fog
02:00 Legend Double Dagger 3.3 3.3 100 30 13 3.6 100.22     Fog
03:00 Legend Double Dagger 3.6 3.6 100   0 16.1 100.27     LegendNANA
04:00 Legend Double Dagger 3.5 3.5 100 26 8 16.1 100.31     LegendNANA
05:00 Legend Double Dagger 3.7 3.7 100 26 8 0.4 100.33     Fog
06:00 Legend Double Dagger 4.0 4.0 100 24 4 0.2 100.35     Fog
07:00 Legend Double Dagger 4.3 4.3 100 22 9 0.4 100.39     Fog
08:00 Legend Double Dagger 4.7 4.7 100 24 13 0.8 100.43     Fog
09:00 Legend Double Dagger 3.9 3.9 100 27 13 0.6 100.47     Fog
10:00 Legend Double Dagger 4.6 4.6 100 27 18 2.0 100.51     Fog
11:00 Legend Double Dagger 5.1 5.1 100 27 13 16.1 100.54     LegendNANA
12:00 Legend Double Dagger 5.2 4.9 98 26 11 16.1 100.57     LegendNANA
13:00 Legend Double Dagger 4.2 4.1 99 34 11 0.6 100.61     Fog
14:00 Legend Double Dagger 3.5 3.4 99 36 15 14.5 100.66     LegendNANA
15:00 Legend Double Dagger 3.2 3.2 100 2 15 12.9 100.71     LegendNANA
16:00 Legend Double Dagger 2.4 2.4 100 4 17 0.6 100.75     Fog
17:00 Legend Double Dagger 2.0 2.0 100 2 21 0.8 100.78     Fog
18:00 Legend Double Dagger 2.1 2.1 100 4 18 2.0 100.82     Fog
19:00 Legend Double Dagger 2.6 2.6 100 5 21 2.8 100.86     Fog
20:00 Legend Double Dagger 2.1 2.1 100 6 37 16.1 100.88     LegendNANA
21:00 Legend Double Dagger 1.6 1.6 100 7 39 8.1 100.94     Fog
22:00 Legend Double Dagger 1.3 1.3 100 6 37 4.0 101.00     Fog
23:00 Legend Double Dagger 1.0 0.7 98 6 37 11.3 101.05     LegendNANA

Notes on Data Quality.

Legend

  • E = Estimated
  • M = Missing
  • NA = Not Available
  • ‡ = Partner data that is not subject to review by the National Climate Archives
Date modified: